Regional Weather Roundup
Issued by NWS

Home | Current Version | Previous Version | Text Only | Print | Product List | Glossary On
Versions: 1 2 3 4 5 6 7 8 9 10 11 12 13 14 15 16 17 18 19 20 21 22 23 24 25 26 27 28 29 30 31 32 33 34 35 36 37 38 39 40 41 42 43 44 45 46 47 48 49 50
560
ASUS44 KJAN 191103
RWRMS

MISSISSIPPI HOURLY WEATHER ROUNDUP
NATIONAL WEATHER SERVICE JACKSON MS
600 AM CDT SUN OCT 19 2014

NOTE: "FAIR: INDICATES FEW OR NO CLOUDS BELOW 12,000 FEET WITH NO
SIGNIFICANT WEATHER AND/OR OBSTRUCTIONS TO VISIBILITY.

MSZ001>002-007>008-010>013-018>021-025>028-034>036-191200-
NORTHWEST MISSISSIPPI

CITY           SKY/WX    TMP DP  RH WIND       PRES   REMARKS
CLARKSDALE     FAIR      50  46  87 CALM      30.20R
CLEVELAND      FAIR      50  48  92 E5        30.18R
GREENWOOD      CLEAR     47  45  93 NE5       30.18R
GREENVILLE     CLEAR     47  45  93 NE6       30.17R
GRENADA          N/A    N/A N/A N/A MISG        N/A
OLIVE BRANCH   CLEAR     45  45 100 CALM      30.21R
OXFORD         FAIR      45  43  93 CALM      30.22R
TUNICA         MOSUNNY   45  43  93 NE5       30.21S
$$

MSZ003>006-009-014>017-022>024-029>033-037>039-191200-
NORTHEAST MISSISSIPPI

CITY           SKY/WX    TMP DP  RH WIND       PRES   REMARKS
COLUMBUS AFB   CLEAR     47  46  95 N5        30.19R
CORINTH          N/A     43  41  93 CALM        N/A
GOLDN TRIANGLE CLEAR     46  43  87 MISG      30.18R
TUPELO         PTCLDY    47  43  86 NE5       30.20R
$$

MSZ040-058-191200-
CENTRAL MISSISSIPPI

CITY           SKY/WX    TMP DP  RH WIND       PRES   REMARKS
JACKSON INTL   CLEAR     53  47  79 NE9       30.14R
JACKSON HAWKNS CLEAR     56  46  69 E7        30.14R
MERIDIAN KEY   CLEAR     48  46  93 N8        30.15R
MERIDIAN NAS   CLEAR     47  44  90 CALM      30.16R
RAYMOND        FAIR      48  45  87 CALM      30.14R
VICKSBURG      CLEAR     52  48  86 NE6       30.15R
$$

MSZ059>079-191200-
SOUTH MISSISSIPPI

CITY           SKY/WX    TMP DP  RH WIND       PRES   REMARKS
BROOKHAVEN     FAIR      52  52 100 N5        30.14R
HATTIESBURG    CLEAR     54  50  86 CALM      30.13R
MCCOMB         CLEAR     55  50  83 NE5       30.11R
NATCHEZ        CLEAR     54  48  82 E6        30.13R
PINE BELT      CLEAR     52  46  82 NE7       30.13R
$$

MSZ080>082-191200-
COASTAL MISSISSIPPI

CITY           SKY/WX    TMP DP  RH WIND       PRES   REMARKS
BILOXI         CLEAR     58  52  80 NE10      30.09R
PASCAGOULA     CLEAR     54  51  90 N6        30.09R
GULFPORT       CLEAR     58  51  78 NE6       30.08R
$$



USA.gov is the U.S. government's official web portal to all federal, state and local government web resources and services.